RH
78 73 74 92 94 98 74 55 58 53 57 58 49 56 71 75 63 88 75 78 79 82 84 78 80 76 76 79 81 81 82 81 83 83 83 82 78 79 80 77 74 74 72 71 71 71 70 70 69
68 68 80 94 94 91 64 53 57 52 52 52 45 53 63 77 65 76 85 72 72 77 80 78 82 79 75 76 80 80 76 77 81 83 82 80 76 78 75 74 73 72 71 70 69 69 69 69 70
58 60 84 95 89 88 68 50 42 47 40 45 48 43 56 76 65 70 66 64 66 71 74 78 80 81 76 76 78 78 78 76 78 80 79 77 74 74 73 73 71 70 70 69 68 68 67 67 67
55 92 96 97 75 58 45 46 38 42 42 41 45 58 52 50 56 59 56 55 60 72 76 80 79 78 78 77 77 75 75 75 78 80 77 74 72 72 71 71 69 68 69 68 68 67 66 67 66
69 90 90 78 52 41 42 32 34 42 50 47 49 62 67 55 50 50 52 51 66 71 79 79 82 79 80 78 77 76 74 74 79 78 74 73 72 72 70 68 67 66 68 68 68 65 64 66 67
85 92 92 60 34 33 30 34 34 40 48 49 56 65 71 54 54 54 51 52 60 69 74 76 80 80 81 77 77 78 74 74 78 78 75 76 74 74 72 67 66 65 65 65 66 68 70 71 71
79 90 65 45 30 31 29 32 34 42 47 50 47 71 65 57 50 49 52 52 56 60 72 80 81 78 78 82 78 77 75 74 76 76 76 76 73 70 70 70 68 65 65 64 65 72 73 72 72
92 92 72 29 24 39 27 28 26 35 43 39 48 70 72 57 50 49 50 56 57 67 75 80 86 88 88 85 77 74 76 75 74 73 72 74 71 70 68 74 74 65 62 64 67 73 76 75 74
65 93 84 39 24 24 24 29 26 28 39 40 36 53 51 47 46 51 57 63 67 68 73 77 81 86 85 84 76 78 76 76 74 74 74 79 83 79 71 75 76 66 65 65 69 73 75 72 74
76 89 56 26 27 24 27 28 30 37 43 47 40 42 45 45 49 56 59 64 64 69 72 72 74 76 77 64 84 88 81 86 88 86 86 88 85 82 73 75 70 68 69 64 74 73 71 69 85
68 66 34 28 24 22 20 22 21 34 44 38 47 42 45 43 44 48 55 53 56 58 60 66 69 70 68 65 82 83 83 83 83 86 86 88 81 81 81 94 87 90 74 89 76 83 86 81 87
46 44 30 30 24 24 20 19 23 24 31 34 36 39 42 41 47 49 52 55 55 58 55 55 57 65 69 71 75 75 74 76 77 77 82 82 82 77 85 84 92 86 94 89 88 89 80 75 70
38 33 21 21 24 25 15 20 22 22 29 30 30 31 38 38 50 48 50 53 54 58 57 55 59 76 68 66 71 71 67 70 70 74 73 73 81 83 80 80 78 73 81 90 89 88 87 80 70
31 29 18 18 30 19 16 17 22 24 29 32 33 36 37 36 50 44 47 54 52 54 50 54 59 72 64 71 77 79 64 62 66 77 69 72 81 86 77 85 83 81 76 81 89 87 83 78 73
13 31 22 17 18 18 15 19 23 25 29 35 37 37 36 36 34 39 50 53 49 49 50 58 62 72 75 73 77 74 77 62 57 69 73 70 80 83 79 80 82 81 83 82 80 84 83 80 74
12 12 14 17 15 16 21 46 20 21 31 37 37 36 36 38 34 38 39 46 46 48 56 57 50 62 74 78 82 73 70 72 69 70 72 77 77 81 86 83 82 87 90 89 88 88 82 75 68
14 16 15 20 15 16 31 48 26 25 26 34 35 34 34 36 35 36 38 42 46 47 59 53 58 65 71 81 85 78 74 81 70 76 72 71 76 78 84 85 83 76 79 87 90 79 78 66 66
16 16 14 22 20 25 36 44 24 28 28 30 33 33 33 34 35 35 37 39 46 47 56 58 62 67 70 79 83 84 83 79 80 84 73 82 85 83 79 86 85 76 89 89 82 77 68 74 73
11 13 14 17 22 37 39 38 28 26 31 30 30 32 32 32 31 33 33 38 44 51 58 57 69 78 72 77 81 90 90 84 81 80 80 84 85 80 88 84 86 79 84 79 74 76 70 75 80
11 12 13 26 22 24 36 36 35 30 28 31 27 30 29 31 30 35 35 36 42 52 59 60 66 83 71 74 75 82 84 80 78 83 83 80 81 80 77 86 86 82 82 81 76 70 85 80 80
11 12 14 30 24 27 25 41 44 24 25 28 26 25 26 28 31 34 34 38 41 51 63 63 69 79 75 81 78 88 90 85 84 78 84 73 75 82 82 83 79 88 82 88 78 75 76 79 78
12 10 11 24 28 42 25 51 50 36 32 30 28 23 24 26 27 30 35 39 40 51 58 63 72 78 79 80 77 82 73 88 82 64 67 83 83 84 84 83 81 82 87 81 77 74 80 80 72
10 10 12 11 30 30 28 41 49 42 41 35 24 22 21 22 25 30 33 34 38 46 55 67 66 79 68 73 82 74 86 77 77 76 84 75 81 82 79 84 84 85 88 86 76 74 81 84 87
6 10 11 12 18 50 26 42 38 34 34 28 23 21 21 21 22 24 29 34 36 44 54 65 70 73 75 71 78 87 85 76 76 84 82 80 77 82 86 80 86 87 79 75 81 79 78 78 82
6 8 16 22 22 29 31 32 32 22 24 24 23 21 19 21 21 22 30 33 37 42 55 64 72 74 76 76 78 78 90 83 82 85 83 82 79 83 89 85 86 78 81 76 84 79 80 75 77
6 7 14 31 27 23 21 40 31 20 20 21 20 21 21 24 21 22 24 30 37 39 52 64 73 74 75 77 77 75 78 87 79 85 86 70 69 69 80 86 83 80 83 84 88 87 88 85 85
10 9 8 16 17 27 21 19 25 19 28 29 22 19 24 22 24 22 23 28 36 39 50 57 74 74 77 76 77 77 76 78 84 88 78 82 76 69 75 85 83 84 85 89 91 89 86 87 86
6 10 10 10 18 24 18 23 30 27 33 28 25 26 26 28 22 22 23 26 35 37 42 53 72 74 76 75 76 77 78 78 79 93 82 81 78 80 73 80 83 85 87 91 91 90 90 90 91
11 8 11 12 12 20 27 20 20 27 28 31 26 23 20 20 20 22 23 24 34 37 40 48 68 73 76 76 75 76 79 80 80 78 84 87 75 82 78 80 87 86 90 88 92 90 88 93 88
7 8 10 14 25 23 15 15 14 18 23 23 24 22 20 18 18 18 22 25 30 38 40 46 68 70 73 73 77 79 79 81 84 78 74 71 79 81 79 79 85 84 88 85 89 88 81 85 92
Wind_Speed
13 9 3 2 2 2 4 4 2 14 8 3 8 9 12 5 4 7 7 10 14 10 9 12 16 18 17 16 15 15 15 15 13 14 14 15 13 12 12 12 11 11 10 10 8 8 7 7 7
11 11 4 1 1 3 2 5 5 14 13 12 21 17 14 10 12 14 10 16 15 13 10 10 14 15 16 15 14 14 15 15 12 13 13 13 12 10 11 11 10 9 9 8 7 6 6 6 6
15 8 2 1 2 4 5 9 7 15 20 15 9 13 9 12 15 13 14 20 18 14 11 11 15 14 15 15 14 13 13 13 12 12 12 12 11 10 10 10 8 7 7 6 5 5 4 4 4
10 4 1 5 7 6 7 11 15 20 21 20 19 14 11 13 11 12 20 20 17 14 12 14 15 15 15 16 14 13 13 12 10 11 11 10 10 9 8 8 6 5 5 5 4 3 2 3 3
2 4 5 7 11 8 6 15 19 23 20 21 24 19 10 17 17 18 17 18 17 14 11 11 14 15 15 15 14 13 13 11 10 9 9 9 8 8 7 6 4 3 4 3 4 3 3 2 1
6 2 3 3 9 14 10 21 20 23 22 21 25 17 8 17 17 16 16 15 18 15 11 10 14 14 15 15 14 13 12 10 9 8 7 7 7 6 6 5 4 2 1 2 2 2 1 1 2
10 5 5 14 7 11 19 17 20 24 25 18 23 19 14 19 17 17 16 16 17 15 12 9 8 11 15 14 14 13 11 10 9 7 6 5 5 5 5 5 5 4 2 1 1 1 2 4 6
6 5 11 7 11 15 13 8 20 24 19 22 27 11 19 17 18 14 14 15 17 15 13 10 7 6 6 7 13 13 11 10 9 7 7 6 6 7 7 7 6 4 2 3 4 5 5 4 3
7 2 11 9 7 8 11 13 17 21 30 20 9 18 23 23 20 14 11 13 14 12 14 11 10 7 7 6 8 11 12 9 8 7 8 7 4 6 8 6 10 6 3 1 3 4 5 5 7
7 3 9 11 0 1 19 24 19 20 21 8 23 21 24 25 17 17 17 15 16 16 15 13 12 10 10 9 6 6 6 5 5 6 6 5 5 5 4 5 3 5 4 3 4 3 5 2 2
11 9 11 12 18 8 12 14 17 21 16 24 25 24 29 23 19 20 19 14 15 16 13 16 15 13 12 8 7 5 4 5 5 7 6 5 5 3 6 6 2 0 2 2 1 1 1 4 2
7 17 10 7 12 13 12 12 17 15 18 26 26 29 24 22 18 17 14 13 16 13 13 14 14 12 10 8 7 7 6 6 5 7 7 5 1 3 5 4 3 3 3 3 2 0 5 4 3
6 8 9 19 20 12 12 11 14 16 27 26 23 20 23 20 22 19 19 15 17 15 14 13 14 9 10 10 7 5 7 7 7 7 7 4 4 2 2 3 3 2 3 3 2 1 3 3 3
11 11 12 11 16 11 10 9 12 20 26 24 22 17 10 12 23 19 18 18 17 14 14 15 14 11 12 7 7 4 4 6 7 5 6 5 5 4 3 2 2 2 2 2 2 2 1 3 3
6 10 13 17 12 16 15 9 10 21 24 24 21 17 12 9 10 12 22 20 18 15 12 18 15 10 8 7 3 1 0 0 4 5 7 7 6 5 3 1 1 2 2 3 1 3 4 3 3
15 9 8 10 10 15 14 3 15 15 23 22 23 19 17 15 13 9 17 20 17 12 17 16 14 12 8 7 4 3 2 2 2 3 6 7 6 7 5 3 3 2 3 3 1 1 2 3 3
8 10 10 3 3 5 9 6 11 5 17 21 21 19 17 15 14 13 15 16 17 13 15 16 14 13 10 7 6 5 5 2 2 4 4 4 6 7 4 3 3 2 3 2 2 1 2 1 3
10 8 11 8 10 7 9 7 11 8 7 20 20 20 16 16 16 16 14 16 16 15 14 14 9 15 13 8 6 4 3 3 3 4 4 6 4 5 5 3 3 3 4 3 2 1 2 1 2
15 15 13 5 11 9 5 12 17 10 6 11 21 20 19 18 14 15 15 16 16 15 15 14 10 13 11 7 7 4 4 3 3 5 6 7 6 6 6 4 2 3 4 4 3 2 3 3 1
21 18 19 12 7 10 16 17 17 15 17 14 19 21 21 19 18 16 16 16 18 16 16 15 13 12 12 9 6 4 4 4 3 3 6 7 7 8 6 5 4 5 4 4 4 4 1 2 2
23 20 15 10 5 8 7 11 11 13 13 14 15 23 22 22 21 18 20 17 16 18 17 17 15 13 13 11 7 3 2 2 2 3 4 8 8 5 6 6 5 5 4 4 4 4 3 2 3
20 20 21 15 15 9 14 8 16 15 18 15 19 22 22 22 21 21 22 18 20 17 18 18 15 14 11 11 10 8 6 5 5 8 8 5 7 7 7 7 7 5 5 6 4 4 3 3 2
23 13 18 18 7 13 12 3 9 17 17 21 22 23 23 23 23 23 23 24 20 20 19 18 18 15 15 12 10 9 6 6 4 3 7 8 7 8 8 8 7 6 4 5 6 5 5 2 3
15 15 20 15 6 4 16 10 10 10 24 23 19 22 27 24 23 22 24 23 20 19 19 19 20 18 16 15 13 10 9 8 5 3 6 7 6 5 6 8 7 6 6 7 5 4 5 4 3
20 14 12 10 10 6 21 16 14 13 10 26 23 19 19 25 23 23 23 22 21 21 21 20 21 19 18 18 15 15 9 9 8 7 6 7 5 3 6 6 7 7 6 6 6 5 3 3 2
19 18 13 10 12 9 7 11 11 16 14 17 22 17 10 7 23 24 23 24 24 23 23 23 23 21 20 19 18 15 14 7 7 7 5 7 8 8 8 9 9 9 7 7 6 4 4 4 4
9 21 14 6 10 6 7 9 6 19 7 12 15 15 10 13 12 22 22 21 24 24 23 24 24 22 21 21 17 16 14 13 9 8 7 6 6 8 10 10 12 10 8 8 7 5 5 5 5
18 6 14 12 16 17 14 10 8 18 15 14 12 10 6 6 13 18 22 22 23 26 23 23 25 26 24 22 18 16 16 14 11 7 9 8 7 8 12 13 12 11 9 8 8 6 5 6 5
8 17 10 8 14 9 8 15 6 10 21 20 20 20 20 20 21 23 24 24 22 23 22 22 22 24 22 21 19 18 15 16 13 12 9 8 9 10 14 14 12 11 11 10 8 7 7 8 7
24 15 11 10 5 5 10 16 8 7 23 27 24 18 18 27 29 28 21 22 21 24 23 24 21 23 22 21 20 18 16 15 15 15 14 13 10 13 14 13 14 13 12 12 11 10 8 8 8
Wind_Direction
154 157 133 53 79 240 239 142 207 118 76 40 76 67 89 8 57 133 148 150 140 148 148 134 127 122 119 113 113 113 111 108 106 107 102 98 101 106 103 98 99 95 94 90 91 88 87 85 89
155 156 24 133 89 264 147 132 171 103 122 126 96 94 71 76 76 118 133 145 140 141 142 131 128 128 126 121 119 118 116 113 110 104 100 101 102 103 100 102 98 97 90 89 90 90 92 93 90
163 114 89 214 240 183 158 154 109 107 131 124 115 85 80 115 129 143 146 145 145 143 131 137 132 132 133 130 130 125 122 122 117 109 106 108 112 105 104 100 98 96 93 90 82 85 88 92 86
166 74 299 267 205 236 133 136 138 122 101 106 110 76 92 108 115 142 148 149 135 125 131 134 138 137 134 137 139 137 130 123 120 114 114 117 112 116 113 110 109 96 82 70 59 54 62 62 70
358 160 218 230 207 152 174 142 134 114 92 95 103 114 89 98 123 133 130 128 130 129 135 136 138 137 139 140 141 139 136 133 127 122 125 123 129 128 119 123 123 100 71 44 50 41 42 50 58
189 73 238 289 145 150 141 115 120 111 109 109 107 113 112 139 141 141 144 142 131 135 138 141 144 147 144 144 145 143 143 139 135 140 139 138 145 149 154 156 154 130 42 49 66 76 42 35 348
246 343 270 274 169 139 124 134 127 126 131 128 125 117 136 148 146 156 153 143 137 136 135 135 149 155 148 152 148 145 149 153 152 156 161 169 171 183 198 194 186 190 201 240 13 321 358 16 355
21 341 302 289 114 127 136 141 134 142 121 130 132 140 156 152 160 156 152 146 136 136 136 150 152 144 134 141 147 153 162 163 163 174 191 202 207 219 219 217 227 217 253 308 318 341 327 15 344
121 70 305 304 91 150 121 109 115 126 125 139 158 147 156 153 162 149 154 132 136 144 146 151 153 156 148 146 163 165 171 173 182 197 211 221 223 230 224 228 237 219 217 344 302 318 318 8 2
98 106 281 329 313 219 124 129 143 121 129 155 132 148 141 154 160 136 134 151 153 153 154 158 165 168 163 164 162 172 183 185 196 208 209 217 232 239 194 266 227 228 234 325 338 245 312 220 273
140 201 215 287 281 270 123 133 126 135 149 148 149 144 151 164 165 148 158 159 153 159 163 166 170 174 176 165 176 186 188 190 203 219 210 190 237 218 128 216 244 321 258 355 202 36 56 275 229
151 247 213 229 249 266 140 135 138 159 159 143 153 146 156 161 161 159 159 158 154 157 166 162 172 166 175 163 182 190 186 197 194 207 220 195 175 84 143 180 196 235 231 113 0 334 305 290 183
220 259 201 232 247 283 133 137 165 140 130 138 144 157 164 166 164 168 168 167 162 174 172 175 174 162 164 179 193 188 201 203 194 191 192 183 128 108 151 193 120 139 167 128 284 252 291 292 349
199 214 296 248 229 195 144 126 106 134 135 141 146 160 177 159 169 175 169 163 169 177 174 166 173 165 167 178 173 183 186 170 176 165 185 174 149 152 136 47 59 320 65 98 187 233 247 334 346
232 197 242 267 185 136 133 143 133 139 142 146 150 162 176 182 180 158 159 164 173 180 183 164 169 163 158 156 165 169 147 288 144 175 181 179 157 151 132 89 305 316 164 118 87 357 349 334 347
283 271 259 218 184 145 126 186 135 145 145 153 155 169 180 191 191 172 162 165 173 164 156 160 172 172 162 156 173 188 249 226 227 134 167 181 149 149 155 198 252 150 162 106 68 337 337 22 354
277 258 255 132 113 166 106 192 154 138 154 158 163 173 185 190 187 179 166 164 165 166 154 170 166 170 169 169 164 186 225 248 238 130 138 199 170 150 164 213 230 272 128 161 181 135 164 17 346
244 245 255 180 205 104 120 172 174 148 145 165 168 174 183 189 194 178 171 169 164 170 165 169 162 168 171 171 162 177 204 230 172 171 203 163 193 177 181 200 206 225 111 151 149 139 10 352 266
253 250 260 182 128 94 12 165 196 205 185 195 174 175 180 189 192 181 175 167 167 170 169 174 165 162 169 170 169 169 187 214 212 183 193 182 192 177 179 206 195 191 173 169 139 104 49 336 316
250 258 262 26 163 116 150 197 238 169 219 183 188 179 181 181 188 178 183 174 173 174 173 176 175 155 170 172 171 167 176 215 207 139 171 172 177 185 187 180 207 168 138 125 136 112 73 359 342
237 244 257 154 289 303 211 212 234 235 193 193 220 180 184 183 185 182 184 180 174 176 173 175 174 164 168 159 168 185 161 253 181 191 171 206 193 173 167 186 161 175 152 154 154 143 131 112 306
232 235 250 172 189 189 194 215 217 219 209 209 218 185 187 188 185 183 183 182 179 178 174 173 171 166 164 162 171 182 188 193 206 201 199 191 182 184 184 164 159 152 154 146 153 153 133 126 121
237 241 247 251 157 177 249 343 222 213 218 221 201 188 190 188 187 185 185 186 183 174 176 171 173 168 174 179 172 190 186 194 209 184 172 175 182 179 177 160 161 148 139 136 149 152 143 122 131
241 237 255 260 210 204 193 170 270 179 189 217 197 189 189 192 188 186 189 183 185 176 173 171 174 178 174 182 190 191 186 198 201 178 151 156 169 166 175 149 150 143 144 159 172 153 145 157 122
216 231 240 252 245 209 202 201 213 221 191 188 195 198 190 188 188 190 185 188 185 180 175 174 176 181 180 184 190 199 194 199 191 171 166 159 165 159 166 149 155 156 157 168 160 154 167 164 164
212 216 225 222 230 249 204 202 220 218 191 173 184 181 182 190 188 189 189 189 186 184 179 176 179 181 184 186 193 195 199 202 204 183 167 180 177 176 170 165 160 163 161 161 163 156 171 175 182
230 214 224 253 255 256 225 265 221 210 161 151 156 174 198 219 186 190 190 186 185 185 181 180 179 183 185 189 192 196 195 201 207 185 184 179 178 175 178 164 168 170 168 165 161 176 184 185 190
212 201 216 228 234 248 254 246 241 188 172 177 179 168 191 223 199 184 198 187 185 186 182 180 178 183 185 189 191 195 196 197 198 181 195 184 186 158 173 176 171 173 171 168 171 178 189 186 196
217 221 228 195 219 227 242 253 249 187 179 170 181 192 179 207 229 219 198 188 181 182 180 180 179 182 186 189 191 194 195 195 195 203 194 182 185 163 173 174 171 176 175 178 176 186 189 190 195
215 206 196 217 289 248 236 253 289 168 187 186 187 192 195 199 212 206 187 187 175 179 178 181 177 182 187 188 189 195 192 191 193 204 202 200 190 177 177 175 179 183 180 182 181 187 192 200 198